Time,TemperatureF,DewpointF,PressureIn,WindDirection,WindDirectionDegrees,WindSpeedMPH,WindSpeedGustMPH,Humidity,HourlyPrecipIn,Conditions,Clouds,dailyrainin,SolarRadiationWatts/m^2,SoftwareType,DateUTC
2013-08-06 00:01:00,67.0,39.0,-100.00,SE,144,6.0,7.0,36,0.00,,,0.00,0.000000,,2013-08-06 07:01:00,
2013-08-06 00:32:00,68.0,40.0,-100.00,SE,142,4.0,7.0,36,0.00,,,0.00,0.000000,,2013-08-06 07:32:00,
2013-08-06 00:44:00,68.0,40.0,-100.00,SE,142,4.0,7.0,36,0.00,,,0.00,0.000000,,2013-08-06 07:44:00,
2013-08-06 00:53:00,68.0,40.0,-100.00,SE,142,4.0,7.0,36,0.00,,,0.00,0.000000,,2013-08-06 07:53:00,
2013-08-06 01:01:00,68.0,40.0,-100.00,SE,142,4.0,7.0,36,0.00,,,0.00,0.000000,,2013-08-06 08:01:00,
2013-08-06 01:33:00,68.0,41.0,-100.00,SSE,156,4.0,6.0,38,0.00,,,0.00,0.000000,,2013-08-06 08:33:00,
2013-08-06 01:43:00,68.0,41.0,-100.00,SSE,156,4.0,6.0,38,0.00,,,0.00,0.000000,,2013-08-06 08:43:00,
2013-08-06 01:52:00,68.0,41.0,-100.00,SSE,156,4.0,6.0,38,0.00,,,0.00,0.000000,,2013-08-06 08:52:00,
2013-08-06 02:01:00,68.0,41.0,-100.00,SSE,156,4.0,6.0,38,0.00,,,0.00,0.000000,,2013-08-06 09:01:00,
2013-08-06 02:33:00,63.0,42.0,-100.00,SE,138,4.0,6.0,46,0.00,,,0.00,0.000000,,2013-08-06 09:33:00,
2013-08-06 02:43:00,63.0,42.0,-100.00,SE,138,4.0,6.0,46,0.00,,,0.00,0.000000,,2013-08-06 09:43:00,
2013-08-06 02:52:00,63.0,42.0,-100.00,SE,138,4.0,6.0,46,0.00,,,0.00,0.000000,,2013-08-06 09:52:00,
2013-08-06 03:01:00,63.0,42.0,-100.00,SE,138,4.0,6.0,46,0.00,,,0.00,0.000000,,2013-08-06 10:01:00,
2013-08-06 03:32:00,60.0,42.0,-100.00,SE,130,4.0,6.0,51,0.00,,,0.00,0.000000,,2013-08-06 10:32:00,
2013-08-06 03:43:00,60.0,42.0,-100.00,SE,130,4.0,6.0,51,0.00,,,0.00,0.000000,,2013-08-06 10:43:00,
2013-08-06 03:53:00,60.0,42.0,-100.00,SE,130,4.0,6.0,51,0.00,,,0.00,0.000000,,2013-08-06 10:53:00,
2013-08-06 04:01:00,60.0,42.0,-100.00,SE,130,4.0,6.0,51,0.00,,,0.00,0.000000,,2013-08-06 11:01:00,
2013-08-06 04:32:00,60.0,41.0,-100.00,ESE,121,7.0,9.0,50,0.00,,,0.00,0.000000,,2013-08-06 11:32:00,
2013-08-06 04:43:00,60.0,41.0,-100.00,ESE,121,7.0,9.0,50,0.00,,,0.00,0.000000,,2013-08-06 11:43:00,
2013-08-06 04:53:00,60.0,41.0,-100.00,ESE,121,7.0,9.0,50,0.00,,,0.00,0.000000,,2013-08-06 11:53:00,
2013-08-06 05:01:00,60.0,41.0,-100.00,ESE,121,7.0,9.0,50,0.00,,,0.00,0.000000,,2013-08-06 12:01:00,
2013-08-06 05:43:00,59.0,43.0,-100.00,SE,128,7.0,10.0,56,0.00,,,0.00,0.000000,,2013-08-06 12:43:00,
2013-08-06 05:52:00,59.0,43.0,-100.00,SE,128,7.0,10.0,56,0.00,,,0.00,0.000000,,2013-08-06 12:52:00,
2013-08-06 06:01:00,59.0,43.0,-100.00,SE,128,7.0,10.0,56,0.00,,,0.00,0.000000,,2013-08-06 13:01:00,
2013-08-06 06:42:00,56.0,42.0,-100.00,East,99,5.0,10.0,60,0.00,,,0.00,2.000000,,2013-08-06 13:42:00,
2013-08-06 06:53:00,56.0,42.0,-100.00,East,99,5.0,10.0,60,0.00,,,0.00,2.000000,,2013-08-06 13:53:00,
2013-08-06 07:01:00,56.0,42.0,-100.00,East,99,5.0,10.0,60,0.00,,,0.00,2.000000,,2013-08-06 14:01:00,
2013-08-06 07:32:00,64.0,44.0,-100.00,SE,138,3.0,7.0,49,0.00,,,0.00,68.000000,,2013-08-06 14:32:00,
2013-08-06 07:42:00,64.0,44.0,-100.00,SE,138,3.0,7.0,49,0.00,,,0.00,68.000000,,2013-08-06 14:42:00,
2013-08-06 07:53:00,64.0,44.0,-100.00,SE,138,3.0,7.0,49,0.00,,,0.00,68.000000,,2013-08-06 14:53:00,
2013-08-06 08:02:00,64.0,44.0,-100.00,SE,138,3.0,7.0,49,0.00,,,0.00,68.000000,,2013-08-06 15:02:00,
2013-08-06 08:33:00,73.0,44.0,-100.00,NNE,33,3.0,4.0,36,0.00,,,0.00,225.000000,,2013-08-06 15:33:00,
2013-08-06 08:44:00,73.0,44.0,-100.00,NNE,33,3.0,4.0,36,0.00,,,0.00,225.000000,,2013-08-06 15:44:00,
2013-08-06 08:52:00,73.0,44.0,-100.00,NNE,33,3.0,4.0,36,0.00,,,0.00,225.000000,,2013-08-06 15:52:00,
2013-08-06 09:01:00,73.0,44.0,-100.00,NNE,33,3.0,4.0,36,0.00,,,0.00,225.000000,,2013-08-06 16:01:00,
2013-08-06 09:32:00,79.0,41.0,-100.00,NE,47,3.0,8.0,26,0.00,,,0.00,394.000000,,2013-08-06 16:32:00,
2013-08-06 09:43:00,79.0,41.0,-100.00,NE,47,3.0,8.0,26,0.00,,,0.00,394.000000,,2013-08-06 16:43:00,
2013-08-06 09:52:00,79.0,41.0,-100.00,NE,47,3.0,8.0,26,0.00,,,0.00,394.000000,,2013-08-06 16:52:00,
2013-08-06 10:02:00,79.0,41.0,-100.00,NE,47,3.0,8.0,26,0.00,,,0.00,394.000000,,2013-08-06 17:02:00,
2013-08-06 10:52:00,84.0,41.0,-100.00,NNE,25,4.0,9.0,22,0.00,,,0.00,558.000000,,2013-08-06 17:52:00,
2013-08-06 11:01:00,84.0,41.0,-100.00,NNE,25,4.0,9.0,22,0.00,,,0.00,558.000000,,2013-08-06 18:01:00,
2013-08-06 11:52:00,87.0,40.0,-100.00,NNW,332,4.0,9.0,19,0.00,,,0.00,702.000000,,2013-08-06 18:52:00,
2013-08-06 12:42:00,90.0,41.0,-100.00,SSE,168,7.0,13.0,18,0.00,,,-99.99,810.000000,,2013-08-06 19:42:00,
2013-08-06 12:52:00,90.0,41.0,-100.00,SSE,168,7.0,13.0,18,0.00,,,-99.99,810.000000,,2013-08-06 19:52:00,
2013-08-06 13:01:00,90.0,41.0,-100.00,SSE,168,7.0,13.0,18,0.00,,,-99.99,810.000000,,2013-08-06 20:01:00,
2013-08-06 15:53:00,93.0,31.0,-100.00,SW,224,6.0,25.0,11,0.00,,,0.00,853.000000,,2013-08-06 22:53:00,
2013-08-06 17:43:00,95.0,30.0,-100.00,ENE,64,5.0,11.0,10,0.00,,,0.00,632.000000,,2013-08-07 00:43:00,
2013-08-06 17:52:00,95.0,30.0,-100.00,ENE,64,5.0,11.0,10,0.00,,,0.00,632.000000,,2013-08-07 00:52:00,
2013-08-06 18:43:00,94.0,31.0,-100.00,West,281,6.0,10.0,11,0.00,,,0.00,456.000000,,2013-08-07 01:43:00,
2013-08-06 18:52:00,94.0,31.0,-100.00,West,281,6.0,10.0,11,0.00,,,0.00,456.000000,,2013-08-07 01:52:00,
2013-08-06 19:02:00,94.0,31.0,-100.00,West,281,6.0,10.0,11,0.00,,,0.00,456.000000,,2013-08-07 02:02:00,
2013-08-06 19:43:00,92.0,32.0,-100.00,West,260,4.0,12.0,12,0.00,,,0.00,273.000000,,2013-08-07 02:43:00,
2013-08-06 20:01:00,92.0,32.0,-100.00,West,260,4.0,12.0,12,0.00,,,0.00,273.000000,,2013-08-07 03:01:00,
2013-08-06 20:32:00,85.0,38.0,-100.00,NNE,15,8.0,14.0,19,0.00,,,0.00,105.000000,,2013-08-07 03:32:00,
2013-08-06 20:43:00,85.0,38.0,-100.00,NNE,15,8.0,14.0,19,0.00,,,0.00,105.000000,,2013-08-07 03:43:00,
2013-08-06 20:52:00,85.0,38.0,-100.00,NNE,15,8.0,14.0,19,0.00,,,0.00,105.000000,,2013-08-07 03:52:00,
2013-08-06 21:01:00,85.0,38.0,-100.00,NNE,15,8.0,14.0,19,0.00,,,0.00,105.000000,,2013-08-07 04:01:00,
2013-08-06 21:43:00,79.0,36.0,-100.00,SE,142,4.0,12.0,21,0.00,,,0.00,5.000000,,2013-08-07 04:43:00,
2013-08-06 21:52:00,79.0,36.0,-100.00,SE,142,4.0,12.0,21,0.00,,,0.00,5.000000,,2013-08-07 04:52:00,
2013-08-06 22:02:00,79.0,36.0,-100.00,SE,142,4.0,12.0,21,0.00,,,0.00,5.000000,,2013-08-07 05:02:00,
2013-08-06 22:32:00,75.0,32.0,-100.00,East,96,2.0,14.0,21,0.00,,,0.00,0.000000,,2013-08-07 05:32:00,
2013-08-06 22:43:00,75.0,32.0,-100.00,East,96,2.0,14.0,21,0.00,,,0.00,0.000000,,2013-08-07 05:43:00,
2013-08-06 22:52:00,75.0,32.0,-100.00,East,96,2.0,14.0,21,0.00,,,0.00,0.000000,,2013-08-07 05:52:00,
2013-08-06 23:02:00,75.0,32.0,-100.00,East,96,2.0,14.0,21,0.00,,,0.00,0.000000,,2013-08-07 06:02:00,
2013-08-06 23:32:00,66.0,33.0,-100.00,SE,141,6.0,7.0,29,0.00,,,0.00,0.000000,,2013-08-07 06:32:00,
2013-08-06 23:43:00,66.0,33.0,-100.00,SE,141,6.0,7.0,29,0.00,,,0.00,0.000000,,2013-08-07 06:43:00,
2013-08-06 23:52:00,66.0,33.0,-100.00,SE,141,6.0,7.0,29,0.00,,,0.00,0.000000,,2013-08-07 06:52:00,